Wetterdaten: Dienstag, 18.02.2020
Datum Zeit Temp. A. Feuchte A. Luftdruck Regen Wind Richtung Richtung Sonnenschein UV Solar Windben
18.02.2020 00:00 6,7 C 86 % 1014,4 hPa 0,0 mm 8,0 km/h (2 Bft) W-SW 248 0 min 0 UV-I 0 W/m 17,7 km/h (3 Bft)
18.02.2020 00:10 6,7 C 87 % 1014,4 hPa 0,0 mm 3,2 km/h (1 Bft) SW 225 0 min 0 UV-I 0 W/m 9,7 km/h (2 Bft)
18.02.2020 00:20 6,6 C 87 % 1014,4 hPa 0,0 mm 1,6 km/h (1 Bft) S-SW 203 0 min 0 UV-I 0 W/m 20,9 km/h (4 Bft)
18.02.2020 00:30 6,6 C 87 % 1014,8 hPa 0,0 mm 4,8 km/h (1 Bft) W 270 0 min 0 UV-I 0 W/m 11,3 km/h (2 Bft)
18.02.2020 00:40 6,7 C 87 % 1014,8 hPa 0,0 mm 4,8 km/h (1 Bft) W-SW 248 0 min 0 UV-I 0 W/m 9,7 km/h (2 Bft)
18.02.2020 00:50 6,6 C 87 % 1014,7 hPa 0,0 mm 6,4 km/h (2 Bft) W-SW 248 0 min 0 UV-I 0 W/m 12,9 km/h (3 Bft)
18.02.2020 01:00 6,7 C 87 % 1014,8 hPa 0,0 mm 8,0 km/h (2 Bft) SW 225 0 min 0 UV-I 0 W/m 22,5 km/h (4 Bft)
18.02.2020 01:10 6,8 C 86 % 1014,7 hPa 0,0 mm 9,7 km/h (2 Bft) W-SW 248 0 min 0 UV-I 0 W/m 20,9 km/h (4 Bft)
18.02.2020 01:20 7,1 C 85 % 1014,8 hPa 0,0 mm 8,0 km/h (2 Bft) SW 225 0 min 0 UV-I 0 W/m 19,3 km/h (3 Bft)
18.02.2020 01:30 7,2 C 84 % 1015,5 hPa 0,3 mm 9,7 km/h (2 Bft) W 270 0 min 0 UV-I 0 W/m 27,4 km/h (4 Bft)
18.02.2020 01:40 6,5 C 84 % 1015,5 hPa 1,8 mm 9,7 km/h (2 Bft) W 270 0 min 0 UV-I 0 W/m 27,4 km/h (4 Bft)
18.02.2020 01:50 5,8 C 86 % 1015,5 hPa 0,8 mm 9,7 km/h (2 Bft) SW 225 0 min 0 UV-I 0 W/m 24,1 km/h (4 Bft)
18.02.2020 02:00 5,7 C 87 % 1015,6 hPa 0,3 mm 9,7 km/h (2 Bft) W-SW 248 0 min 0 UV-I 0 W/m 22,5 km/h (4 Bft)
18.02.2020 02:10 5,6 C 88 % 1015,8 hPa 0,5 mm 14,5 km/h (3 Bft) SW 225 0 min 0 UV-I 0 W/m 33,8 km/h (5 Bft)
18.02.2020 02:20 5,7 C 89 % 1015,6 hPa 0,3 mm 8,0 km/h (2 Bft) SW 225 0 min 0 UV-I 0 W/m 25,7 km/h (4 Bft)
18.02.2020 02:30 5,8 C 89 % 1015,6 hPa 0,3 mm 8,0 km/h (2 Bft) SW 225 0 min 0 UV-I 0 W/m 16,1 km/h (3 Bft)
18.02.2020 02:40 5,9 C 89 % 1016,0 hPa 0,0 mm 11,3 km/h (2 Bft) W-SW 248 0 min 0 UV-I 0 W/m 22,5 km/h (4 Bft)
18.02.2020 02:50 6,0 C 90 % 1016,1 hPa 0,0 mm 11,3 km/h (2 Bft) W-SW 248 0 min 0 UV-I 0 W/m 25,7 km/h (4 Bft)
18.02.2020 03:00 6,2 C 90 % 1016,0 hPa 0,0 mm 12,9 km/h (3 Bft) W-SW 248 0 min 0 UV-I 0 W/m 24,1 km/h (4 Bft)
18.02.2020 03:10 6,3 C 90 % 1016,0 hPa 0,0 mm 9,7 km/h (2 Bft) W-SW 248 0 min 0 UV-I 0 W/m 22,5 km/h (4 Bft)
18.02.2020 03:20 6,3 C 90 % 1016,0 hPa 0,0 mm 11,3 km/h (2 Bft) W-SW 248 0 min 0 UV-I 0 W/m 22,5 km/h (4 Bft)
18.02.2020 03:30 6,4 C 89 % 1015,7 hPa 0,0 mm 11,3 km/h (2 Bft) W-SW 248 0 min 0 UV-I 0 W/m 22,5 km/h (4 Bft)
18.02.2020 03:40 6,4 C 88 % 1015,6 hPa 0,0 mm 9,7 km/h (2 Bft) W-SW 248 0 min 0 UV-I 0 W/m 30,6 km/h (5 Bft)
18.02.2020 03:50 6,4 C 88 % 1016,0 hPa 0,0 mm 12,9 km/h (3 Bft) W-SW 248 0 min 0 UV-I 0 W/m 29,0 km/h (5 Bft)
18.02.2020 04:00 6,5 C 87 % 1016,0 hPa 0,0 mm 12,9 km/h (3 Bft) SW 225 0 min 0 UV-I 0 W/m 24,1 km/h (4 Bft)
18.02.2020 04:10 6,6 C 86 % 1016,3 hPa 0,0 mm 11,3 km/h (2 Bft) W-SW 248 0 min 0 UV-I 0 W/m 29,0 km/h (5 Bft)
18.02.2020 04:20 6,6 C 85 % 1016,4 hPa 0,0 mm 11,3 km/h (2 Bft) W-SW 248 0 min 0 UV-I 0 W/m 29,0 km/h (5 Bft)
18.02.2020 04:30 6,7 C 85 % 1016,3 hPa 0,0 mm 14,5 km/h (3 Bft) W-SW 248 0 min 0 UV-I 0 W/m 30,6 km/h (5 Bft)
18.02.2020 04:40 6,6 C 85 % 1016,3 hPa 0,0 mm 11,3 km/h (2 Bft) W-SW 248 0 min 0 UV-I 0 W/m 22,5 km/h (4 Bft)
18.02.2020 04:50 6,6 C 85 % 1016,6 hPa 0,0 mm 11,3 km/h (2 Bft) W-SW 248 0 min 0 UV-I 0 W/m 20,9 km/h (4 Bft)
18.02.2020 05:00 6,6 C 84 % 1016,8 hPa 0,0 mm 12,9 km/h (3 Bft) W-SW 248 0 min 0 UV-I 0 W/m 27,4 km/h (4 Bft)
18.02.2020 05:10 6,6 C 83 % 1016,9 hPa 0,0 mm 11,3 km/h (2 Bft) W-SW 248 0 min 0 UV-I 0 W/m 25,7 km/h (4 Bft)
18.02.2020 05:20 6,6 C 83 % 1016,9 hPa 0,0 mm 9,7 km/h (2 Bft) W-SW 248 0 min 0 UV-I 0 W/m 20,9 km/h (4 Bft)
18.02.2020 05:30 6,6 C 83 % 1017,0 hPa 0,0 mm 11,3 km/h (2 Bft) W-SW 248 0 min 0 UV-I 0 W/m 20,9 km/h (4 Bft)
18.02.2020 05:40 6,4 C 82 % 1017,1 hPa 0,0 mm 9,7 km/h (2 Bft) SW 225 0 min 0 UV-I 0 W/m 24,1 km/h (4 Bft)
18.02.2020 05:50 6,3 C 83 % 1017,2 hPa 0,0 mm 9,7 km/h (2 Bft) SW 225 0 min 0 UV-I 0 W/m 24,1 km/h (4 Bft)
18.02.2020 06:00 6,3 C 82 % 1017,3 hPa 0,0 mm 9,7 km/h (2 Bft) S-SW 203 0 min 0 UV-I 0 W/m 33,8 km/h (5 Bft)
18.02.2020 06:10 6,3 C 82 % 1017,4 hPa 0,0 mm 11,3 km/h (2 Bft) W-SW 248 0 min 0 UV-I 0 W/m 24,1 km/h (4 Bft)
18.02.2020 06:20 6,3 C 82 % 1017,7 hPa 0,0 mm 11,3 km/h (2 Bft) W 270 0 min 0 UV-I 0 W/m 25,7 km/h (4 Bft)
18.02.2020 06:30 6,2 C 82 % 1017,8 hPa 0,3 mm 11,3 km/h (2 Bft) W-NW 293 0 min 0 UV-I 0 W/m 33,8 km/h (5 Bft)
18.02.2020 06:40 5,6 C 84 % 1018,1 hPa 1,0 mm 9,7 km/h (2 Bft) W 270 0 min 0 UV-I 0 W/m 22,5 km/h (4 Bft)
18.02.2020 06:50 5,1 C 86 % 1017,9 hPa 0,0 mm 4,8 km/h (1 Bft) W 270 0 min 0 UV-I 0 W/m 14,5 km/h (3 Bft)
18.02.2020 07:00 4,9 C 87 % 1018,1 hPa 0,0 mm 6,4 km/h (2 Bft) W 270 0 min 0 UV-I 0 W/m 16,1 km/h (3 Bft)
18.02.2020 07:10 5,0 C 88 % 1018,2 hPa 0,0 mm 6,4 km/h (2 Bft) W-SW 248 0 min 0 UV-I 0 W/m 19,3 km/h (3 Bft)
18.02.2020 07:20 5,1 C 87 % 1018,2 hPa 0,0 mm 9,7 km/h (2 Bft) W-SW 248 0 min 0 UV-I 0 W/m 24,1 km/h (4 Bft)
18.02.2020 07:30 5,3 C 85 % 1018,5 hPa 0,0 mm 9,7 km/h (2 Bft) SW 225 0 min 0 UV-I 0 W/m 22,5 km/h (4 Bft)
18.02.2020 07:40 5,3 C 84 % 1018,6 hPa 0,0 mm 9,7 km/h (2 Bft) W 270 0 min 0 UV-I 0 W/m 22,5 km/h (4 Bft)
18.02.2020 07:50 5,4 C 82 % 1018,9 hPa 0,0 mm 11,3 km/h (2 Bft) W-SW 248 0 min 0 UV-I 0 W/m 29,0 km/h (5 Bft)
18.02.2020 08:00 5,6 C 81 % 1019,1 hPa 0,0 mm 12,9 km/h (3 Bft) W-SW 248 0 min 0 UV-I 5 W/m 33,8 km/h (5 Bft)
18.02.2020 08:10 5,7 C 80 % 1019,3 hPa 0,0 mm 11,3 km/h (2 Bft) W-SW 248 0 min 0 UV-I 8 W/m 24,1 km/h (4 Bft)
18.02.2020 08:20 5,7 C 79 % 1019,4 hPa 0,0 mm 9,7 km/h (2 Bft) SW 225 0 min 0 UV-I 14 W/m 22,5 km/h (4 Bft)
18.02.2020 08:30 5,7 C 79 % 1019,7 hPa 0,0 mm 11,3 km/h (2 Bft) W 270 0 min 0 UV-I 27 W/m 24,1 km/h (4 Bft)
18.02.2020 08:40 5,8 C 79 % 1019,8 hPa 0,0 mm 9,7 km/h (2 Bft) W-SW 248 0 min 0 UV-I 34 W/m 22,5 km/h (4 Bft)
18.02.2020 08:50 5,8 C 79 % 1019,9 hPa 0,0 mm 9,7 km/h (2 Bft) W-SW 248 0 min 0 UV-I 32 W/m 22,5 km/h (4 Bft)
18.02.2020 09:00 5,8 C 79 % 1020,1 hPa 0,0 mm 9,7 km/h (2 Bft) SW 225 0 min 0 UV-I 53 W/m 24,1 km/h (4 Bft)
18.02.2020 09:10 5,9 C 79 % 1020,1 hPa 0,0 mm 9,7 km/h (2 Bft) W-SW 248 0 min 0 UV-I 110 W/m 20,9 km/h (4 Bft)
18.02.2020 09:20 6,0 C 78 % 1020,2 hPa 0,0 mm 9,7 km/h (2 Bft) W-SW 248 0 min 0 UV-I 92 W/m 25,7 km/h (4 Bft)
18.02.2020 09:30 6,1 C 78 % 1020,3 hPa 0,0 mm 9,7 km/h (2 Bft) SW 225 0 min 0 UV-I 99 W/m 22,5 km/h (4 Bft)
18.02.2020 09:40 6,2 C 78 % 1020,3 hPa 0,0 mm 9,7 km/h (2 Bft) W-SW 248 0 min 0 UV-I 98 W/m 25,7 km/h (4 Bft)
18.02.2020 09:50 6,3 C 77 % 1020,4 hPa 0,0 mm 11,3 km/h (2 Bft) W-SW 248 0 min 1 UV-I 142 W/m 27,4 km/h (4 Bft)
18.02.2020 10:00 6,4 C 77 % 1020,3 hPa 0,0 mm 12,9 km/h (3 Bft) W-SW 248 0 min 1 UV-I 99 W/m 30,6 km/h (5 Bft)
18.02.2020 10:10 6,5 C 76 % 1020,4 hPa 0,0 mm 11,3 km/h (2 Bft) W-SW 248 0 min 1 UV-I 130 W/m 27,4 km/h (4 Bft)
18.02.2020 10:20 6,6 C 76 % 1020,4 hPa 0,0 mm 11,3 km/h (2 Bft) W-SW 248 0 min 1 UV-I 103 W/m 33,8 km/h (5 Bft)
18.02.2020 10:30 6,7 C 76 % 1020,5 hPa 0,0 mm 12,9 km/h (3 Bft) W-SW 248 0 min 1 UV-I 151 W/m 29,0 km/h (5 Bft)
18.02.2020 10:40 6,9 C 75 % 1020,5 hPa 0,0 mm 12,9 km/h (3 Bft) W 270 0 min 1 UV-I 91 W/m 30,6 km/h (5 Bft)
18.02.2020 10:50 6,9 C 75 % 1020,5 hPa 0,0 mm 14,5 km/h (3 Bft) W-SW 248 0 min 1 UV-I 132 W/m 25,7 km/h (4 Bft)
18.02.2020 11:00 7,0 C 75 % 1020,6 hPa 0,0 mm 11,3 km/h (2 Bft) S-SW 203 0 min 1 UV-I 158 W/m 30,6 km/h (5 Bft)
18.02.2020 11:10 7,1 C 74 % 1020,7 hPa 0,0 mm 12,9 km/h (3 Bft) W-SW 248 0 min 1 UV-I 146 W/m 32,2 km/h (5 Bft)
18.02.2020 11:20 7,2 C 74 % 1020,7 hPa 0,0 mm 11,3 km/h (2 Bft) W 270 0 min 1 UV-I 159 W/m 24,1 km/h (4 Bft)
18.02.2020 11:30 7,3 C 73 % 1020,7 hPa 0,0 mm 12,9 km/h (3 Bft) W-SW 248 0 min 1 UV-I 182 W/m 33,8 km/h (5 Bft)
18.02.2020 11:40 7,4 C 72 % 1020,7 hPa 0,0 mm 12,9 km/h (3 Bft) W-SW 248 0 min 1 UV-I 190 W/m 35,4 km/h (5 Bft)
18.02.2020 11:50 7,5 C 72 % 1020,7 hPa 0,0 mm 12,9 km/h (3 Bft) W-SW 248 0 min 1 UV-I 183 W/m 29,0 km/h (5 Bft)
18.02.2020 12:00 7,5 C 71 % 1020,7 hPa 0,0 mm 12,9 km/h (3 Bft) W-SW 248 0 min 1 UV-I 154 W/m 25,7 km/h (4 Bft)
18.02.2020 12:10 7,6 C 71 % 1020,7 hPa 0,0 mm 12,9 km/h (3 Bft) W-SW 248 0 min 1 UV-I 213 W/m 27,4 km/h (4 Bft)
18.02.2020 12:20 7,8 C 70 % 1020,6 hPa 0,0 mm 12,9 km/h (3 Bft) W 270 0 min 1 UV-I 116 W/m 30,6 km/h (5 Bft)
18.02.2020 12:30 7,7 C 70 % 1020,6 hPa 0,0 mm 11,3 km/h (2 Bft) W-SW 248 0 min 1 UV-I 93 W/m 24,1 km/h (4 Bft)
18.02.2020 12:40 7,6 C 69 % 1020,4 hPa 0,0 mm 16,1 km/h (3 Bft) W-SW 248 0 min 1 UV-I 117 W/m 32,2 km/h (5 Bft)
18.02.2020 12:50 7,7 C 69 % 1020,6 hPa 0,0 mm 12,9 km/h (3 Bft) W-SW 248 0 min 1 UV-I 129 W/m 29,0 km/h (5 Bft)
18.02.2020 13:00 7,8 C 69 % 1020,4 hPa 0,0 mm 12,9 km/h (3 Bft) W-SW 248 0 min 1 UV-I 148 W/m 25,7 km/h (4 Bft)
18.02.2020 13:10 7,8 C 69 % 1020,2 hPa 0,0 mm 11,3 km/h (2 Bft) SW 225 0 min 1 UV-I 116 W/m 29,0 km/h (5 Bft)
18.02.2020 13:20 7,8 C 69 % 1020,2 hPa 0,0 mm 12,9 km/h (3 Bft) W-SW 248 0 min 1 UV-I 134 W/m 30,6 km/h (5 Bft)
18.02.2020 13:30 8,0 C 67 % 1020,0 hPa 0,0 mm 11,3 km/h (2 Bft) SW 225 0 min 1 UV-I 189 W/m 27,4 km/h (4 Bft)
18.02.2020 13:40 8,2 C 67 % 1020,0 hPa 0,0 mm 11,3 km/h (2 Bft) W-SW 248 0 min 1 UV-I 127 W/m 25,7 km/h (4 Bft)
18.02.2020 13:50 8,2 C 67 % 1020,0 hPa 0,0 mm 16,1 km/h (3 Bft) W-SW 248 10 min 1 UV-I 238 W/m 35,4 km/h (5 Bft)
18.02.2020 14:00 8,6 C 69 % 1020,0 hPa 0,0 mm 12,9 km/h (3 Bft) W-SW 248 10 min 1 UV-I 407 W/m 30,6 km/h (5 Bft)
18.02.2020 14:10 8,8 C 70 % 1020,1 hPa 0,0 mm 11,3 km/h (2 Bft) W-SW 248 0 min 1 UV-I 186 W/m 29,0 km/h (5 Bft)
18.02.2020 14:20 8,4 C 72 % 1020,1 hPa 0,0 mm 12,9 km/h (3 Bft) W-SW 248 10 min 1 UV-I 233 W/m 30,6 km/h (5 Bft)
18.02.2020 14:30 8,1 C 73 % 1020,2 hPa 0,0 mm 12,9 km/h (3 Bft) W-SW 248 0 min 1 UV-I 68 W/m 25,7 km/h (4 Bft)
18.02.2020 14:40 7,4 C 78 % 1020,1 hPa 0,3 mm 9,7 km/h (2 Bft) W 270 0 min 1 UV-I 135 W/m 22,5 km/h (4 Bft)
18.02.2020 14:50 7,1 C 80 % 1019,9 hPa 0,0 mm 8,0 km/h (2 Bft) W-SW 248 0 min 1 UV-I 97 W/m 17,7 km/h (3 Bft)
18.02.2020 15:00 7,1 C 79 % 1020,0 hPa 0,0 mm 9,7 km/h (2 Bft) W-SW 248 0 min 0 UV-I 67 W/m 22,5 km/h (4 Bft)
18.02.2020 15:10 7,3 C 77 % 1019,9 hPa 0,0 mm 8,0 km/h (2 Bft) S-SW 203 0 min 0 UV-I 68 W/m 19,3 km/h (3 Bft)
18.02.2020 15:20 7,3 C 77 % 1019,8 hPa 0,0 mm 9,7 km/h (2 Bft) SW 225 0 min 0 UV-I 46 W/m 19,3 km/h (3 Bft)
18.02.2020 15:30 7,3 C 77 % 1019,6 hPa 0,0 mm 9,7 km/h (2 Bft) W-SW 248 0 min 0 UV-I 81 W/m 24,1 km/h (4 Bft)
18.02.2020 15:40 7,4 C 76 % 1019,5 hPa 0,0 mm 8,0 km/h (2 Bft) SW 225 0 min 0 UV-I 78 W/m 17,7 km/h (3 Bft)
18.02.2020 15:50 7,5 C 75 % 1019,5 hPa 0,0 mm 9,7 km/h (2 Bft) W-SW 248 0 min 0 UV-I 93 W/m 22,5 km/h (4 Bft)
18.02.2020 16:00 7,6 C 75 % 1019,4 hPa 0,0 mm 9,7 km/h (2 Bft) S-SW 203 0 min 0 UV-I 62 W/m 27,4 km/h (4 Bft)
18.02.2020 16:10 7,6 C 75 % 1019,5 hPa 0,0 mm 9,7 km/h (2 Bft) SW 225 0 min 0 UV-I 67 W/m 20,9 km/h (4 Bft)
18.02.2020 16:20 7,6 C 75 % 1019,5 hPa 0,0 mm 9,7 km/h (2 Bft) W-SW 248 10 min 0 UV-I 109 W/m 22,5 km/h (4 Bft)
18.02.2020 16:30 7,6 C 75 % 1019,3 hPa 0,0 mm 9,7 km/h (2 Bft) SW 225 0 min 0 UV-I 71 W/m 32,2 km/h (5 Bft)
18.02.2020 16:40 7,6 C 73 % 1019,1 hPa 0,0 mm 16,1 km/h (3 Bft) W-SW 248 0 min 0 UV-I 79 W/m 33,8 km/h (5 Bft)
18.02.2020 16:50 7,6 C 74 % 1019,2 hPa 0,0 mm 11,3 km/h (2 Bft) W-SW 248 10 min 0 UV-I 101 W/m 24,1 km/h (4 Bft)
18.02.2020 17:00 7,5 C 74 % 1019,3 hPa 0,0 mm 11,3 km/h (2 Bft) W-SW 248 0 min 0 UV-I 51 W/m 25,7 km/h (4 Bft)
18.02.2020 17:10 7,3 C 75 % 1019,2 hPa 0,0 mm 8,0 km/h (2 Bft) SW 225 10 min 0 UV-I 40 W/m 24,1 km/h (4 Bft)
18.02.2020 17:20 7,2 C 76 % 1019,2 hPa 0,0 mm 8,0 km/h (2 Bft) W-SW 248 10 min 0 UV-I 29 W/m 20,9 km/h (4 Bft)
18.02.2020 17:30 7,2 C 76 % 1019,2 hPa 0,0 mm 8,0 km/h (2 Bft) SW 225 10 min 0 UV-I 17 W/m 22,5 km/h (4 Bft)
18.02.2020 17:40 7,2 C 76 % 1019,3 hPa 0,0 mm 8,0 km/h (2 Bft) SW 225 0 min 0 UV-I 13 W/m 19,3 km/h (3 Bft)
18.02.2020 17:50 7,1 C 76 % 1019,4 hPa 0,0 mm 8,0 km/h (2 Bft) SW 225 0 min 0 UV-I 1 W/m 19,3 km/h (3 Bft)
18.02.2020 18:00 6,9 C 77 % 1019,4 hPa 0,0 mm 6,4 km/h (2 Bft) S-SW 203 0 min 0 UV-I 0 W/m 19,3 km/h (3 Bft)
18.02.2020 18:10 6,7 C 77 % 1019,4 hPa 0,0 mm 4,8 km/h (1 Bft) S-SW 203 0 min 0 UV-I 0 W/m 14,5 km/h (3 Bft)
18.02.2020 18:20 6,5 C 78 % 1019,5 hPa 0,0 mm 4,8 km/h (1 Bft) S-SW 203 0 min 0 UV-I 0 W/m 14,5 km/h (3 Bft)
18.02.2020 18:30 6,4 C 79 % 1019,5 hPa 0,0 mm 6,4 km/h (2 Bft) S 180 0 min 0 UV-I 0 W/m 17,7 km/h (3 Bft)
18.02.2020 18:40 6,3 C 79 % 1019,3 hPa 0,0 mm 4,8 km/h (1 Bft) SW 225 0 min 0 UV-I 0 W/m 17,7 km/h (3 Bft)
18.02.2020 18:50 6,2 C 79 % 1019,1 hPa 0,0 mm 6,4 km/h (2 Bft) SW 225 0 min 0 UV-I 0 W/m 16,1 km/h (3 Bft)
18.02.2020 19:00 6,1 C 79 % 1019,1 hPa 0,0 mm 6,4 km/h (2 Bft) SW 225 0 min 0 UV-I 0 W/m 16,1 km/h (3 Bft)
18.02.2020 19:10 6,0 C 79 % 1018,9 hPa 0,0 mm 4,8 km/h (1 Bft) S-SW 203 0 min 0 UV-I 0 W/m 11,3 km/h (2 Bft)
18.02.2020 19:20 5,9 C 79 % 1018,8 hPa 0,0 mm 4,8 km/h (1 Bft) S-SW 203 0 min 0 UV-I 0 W/m 9,7 km/h (2 Bft)
18.02.2020 19:30 5,8 C 79 % 1019,0 hPa 0,0 mm 4,8 km/h (1 Bft) S-SW 203 0 min 0 UV-I 0 W/m 17,7 km/h (3 Bft)
18.02.2020 19:40 5,8 C 79 % 1018,9 hPa 0,0 mm 4,8 km/h (1 Bft) S-SW 203 0 min 0 UV-I 0 W/m 11,3 km/h (2 Bft)
18.02.2020 19:50 5,8 C 79 % 1018,9 hPa 0,0 mm 6,4 km/h (2 Bft) SW 225 0 min 0 UV-I 0 W/m 14,5 km/h (3 Bft)
18.02.2020 20:00 5,9 C 79 % 1018,9 hPa 0,0 mm 6,4 km/h (2 Bft) S-SW 203 0 min 0 UV-I 0 W/m 14,5 km/h (3 Bft)
18.02.2020 20:10 6,1 C 78 % 1018,8 hPa 0,0 mm 4,8 km/h (1 Bft) S 180 0 min 0 UV-I 0 W/m 16,1 km/h (3 Bft)
18.02.2020 20:20 6,1 C 78 % 1018,7 hPa 0,0 mm 8,0 km/h (2 Bft) SW 225 0 min 0 UV-I 0 W/m 19,3 km/h (3 Bft)
18.02.2020 20:30 6,2 C 78 % 1018,8 hPa 0,0 mm 6,4 km/h (2 Bft) S-SW 203 0 min 0 UV-I 0 W/m 16,1 km/h (3 Bft)
18.02.2020 20:40 6,2 C 77 % 1018,5 hPa 0,0 mm 6,4 km/h (2 Bft) S-SW 203 0 min 0 UV-I 0 W/m 16,1 km/h (3 Bft)
18.02.2020 20:50 6,2 C 78 % 1018,5 hPa 0,0 mm 6,4 km/h (2 Bft) S-SW 203 0 min 0 UV-I 0 W/m 16,1 km/h (3 Bft)
18.02.2020 21:00 6,1 C 78 % 1018,3 hPa 0,0 mm 6,4 km/h (2 Bft) SW 225 0 min 0 UV-I 0 W/m 17,7 km/h (3 Bft)
18.02.2020 21:10 6,1 C 78 % 1018,1 hPa 0,0 mm 6,4 km/h (2 Bft) SW 225 0 min 0 UV-I 0 W/m 17,7 km/h (3 Bft)
18.02.2020 21:20 6,0 C 77 % 1018,1 hPa 0,0 mm 6,4 km/h (2 Bft) S 180 0 min 0 UV-I 0 W/m 17,7 km/h (3 Bft)
18.02.2020 21:30 5,9 C 78 % 1017,9 hPa 0,0 mm 4,8 km/h (1 Bft) S-SW 203 0 min 0 UV-I 0 W/m 16,1 km/h (3 Bft)
18.02.2020 21:40 5,9 C 78 % 1017,8 hPa 0,0 mm 6,4 km/h (2 Bft) S-SW 203 0 min 0 UV-I 0 W/m 17,7 km/h (3 Bft)
18.02.2020 21:50 5,9 C 78 % 1017,7 hPa 0,0 mm 6,4 km/h (2 Bft) S-SW 203 0 min 0 UV-I 0 W/m 22,5 km/h (4 Bft)
18.02.2020 22:00 5,9 C 78 % 1017,4 hPa 0,0 mm 6,4 km/h (2 Bft) S-SW 203 0 min 0 UV-I 0 W/m 19,3 km/h (3 Bft)
18.02.2020 22:10 6,0 C 78 % 1017,4 hPa 0,0 mm 8,0 km/h (2 Bft) S-SW 203 0 min 0 UV-I 0 W/m 25,7 km/h (4 Bft)
18.02.2020 22:20 6,2 C 78 % 1017,2 hPa 0,0 mm 8,0 km/h (2 Bft) S-SW 203 0 min 0 UV-I 0 W/m 24,1 km/h (4 Bft)
18.02.2020 22:30 6,2 C 77 % 1017,0 hPa 0,0 mm 8,0 km/h (2 Bft) SW 225 0 min 0 UV-I 0 W/m 20,9 km/h (4 Bft)
18.02.2020 22:40 6,2 C 77 % 1017,0 hPa 0,0 mm 6,4 km/h (2 Bft) SW 225 0 min 0 UV-I 0 W/m 19,3 km/h (3 Bft)
18.02.2020 22:50 6,1 C 77 % 1016,5 hPa 0,0 mm 6,4 km/h (2 Bft) S-SW 203 0 min 0 UV-I 0 W/m 20,9 km/h (4 Bft)
18.02.2020 23:00 6,1 C 77 % 1016,5 hPa 0,0 mm 6,4 km/h (2 Bft) S-SW 203 0 min 0 UV-I 0 W/m 16,1 km/h (3 Bft)
18.02.2020 23:10 6,1 C 77 % 1016,4 hPa 0,0 mm 6,4 km/h (2 Bft) S-SW 203 0 min 0 UV-I 0 W/m 19,3 km/h (3 Bft)
18.02.2020 23:20 6,2 C 76 % 1016,1 hPa 0,0 mm 9,7 km/h (2 Bft) SW 225 0 min 0 UV-I 0 W/m 20,9 km/h (4 Bft)
18.02.2020 23:30 6,4 C 76 % 1015,8 hPa 0,0 mm 8,0 km/h (2 Bft) S-SW 203 0 min 0 UV-I 0 W/m 19,3 km/h (3 Bft)
18.02.2020 23:40 6,5 C 76 % 1015,3 hPa 0,0 mm 8,0 km/h (2 Bft) S-SW 203 0 min 0 UV-I 0 W/m 22,5 km/h (4 Bft)
18.02.2020 23:50 6,6 C 75 % 1015,0 hPa 0,0 mm 8,0 km/h (2 Bft) SW 225 0 min 0 UV-I 0 W/m 20,9 km/h (4 Bft)
_ Min-Zeit 07:00 13:30 00:00 - 00:20 - - - - - 00:10
Minimum _ 4,9 C 67 % 1014,4 hPa - 1,6 km/h (1 Bft) - - - - - 9,7 km/h (2 Bft)
_ Max-Zeit 14:10 02:50 11:10 01:40 12:40 - - 13:50 14:00 14:00 11:40
Maximum _ 8,8 C 90 % 1020,7 hPa 1,8 mm 16,1 km/h
W-SW (3 Bft)
- - 10 min 1 UV-I 407 W/m 35,4 km/h
W-SW (5 Bft)
Durchschnitt _ 6,6 C 79 % 1018,3 hPa #5,6 mm 9,5 km/h (2 Bft) W-SW - #1:20 h 1 UV-I 107 W/m 23,1 km/h (4 Bft)